[[{"header":{"parameterUnit":"m.s-1","parameterCategory":1,"la1":30.2991,"la2":30.254,"lo1":-89.0895,"lo2":-89.0444,"dy":0.0017,"dx":0.0017,"nx":28,"ny":28,"refTime":"2023-09-18T09:00:00:Z","depth":0,"parameterNumber":2,"parameterNumberName":"U-component_of_WINDS"},"data":[0,0,0,0,0,0,0,0,0,0,0,0,0,0,0,0,0,0,0,0,0,0,0,0,0,0,0,0,0,0,0,0,0,0,0,0,0,0,0,0,0,0,0,0,0,0,0,0,0,0,0,0,0,0,0,0,0,0,-1.8042,-1.8044,0,-1.826,-1.8263,-1.8265,-1.8376,-1.8376,-1.8376,-1.8376,-1.8604,-1.861,-1.8616,0,0,0,0,0,0,0,0,0,0,0,0,0,-1.7723,-1.7729,-1.8041,-1.8044,-1.8047,-1.826,-1.8263,-1.8266,-1.8376,-1.8376,-1.8376,-1.8376,-1.8602,-1.8609,-1.8616,0,0,0,0,0,0,0,0,0,0,0,0,0,-1.7894,-1.773,-1.8041,-1.8127,-1.8137,-1.8259,-1.8263,-1.8267,-1.8376,-1.8376,-1.8376,-1.8376,-1.86,-1.8608,-1.8617,-1.8672,0,0,-1.8645,-1.8649,0,0,0,0,0,0,0,0,-1.7884,-1.7905,-1.8112,-1.8121,-1.8133,-1.8291,-1.8235,-1.8402,-1.8375,-1.8285,-1.8376,-1.8376,-1.85,-1.8517,-1.8558,-1.8682,-1.8692,-1.8646,-1.8651,-1.8655,-1.8658,0,0,0,0,0,0,0,-1.7872,-1.7897,-1.8128,-1.8115,-1.8127,-1.8156,-1.8181,-1.8267,-1.839,-1.8293,-1.8301,-1.8326,-1.8506,-1.8549,-1.8564,-1.8695,-1.8645,-1.8654,-1.8659,-1.8663,-1.8877,-1.8877,0,0,0,0,0,0,-1.7846,-1.7886,-1.8121,-1.8135,-1.8006,-1.8162,-1.8189,-1.824,-1.8389,-1.8412,-1.8325,-1.833,-1.8534,-1.8554,-1.8573,-1.8647,-1.8655,-1.8664,-1.8669,-1.8877,-1.8877,-1.8878,0,0,0,0,0,0,-1.7838,-1.7865,-1.8112,-1.8013,-1.8046,-1.8167,-1.8223,-1.8244,-1.8288,-1.8413,-1.8436,-1.8347,-1.8535,-1.856,-1.8646,-1.8657,-1.8668,-1.8676,-1.8877,-1.8877,-1.8877,-1.8795,0,0,0,0,0,0,-1.7829,-1.7862,-1.7883,-1.8012,-1.8051,-1.818,-1.8224,-1.8248,-1.8302,-1.8311,-1.844,-1.8461,-1.8537,-1.8632,-1.8655,-1.8669,-1.8683,-1.8876,-1.8877,-1.8877,-1.8798,-1.8793,-1.8789,0,0,0,0,0,-1.7817,-1.7852,-1.7883,-1.7911,-1.8079,-1.8181,-1.8203,-1.8288,-1.8303,-1.8325,-1.8406,-1.8457,-1.8651,-1.864,-1.8667,-1.8684,-1.8876,-1.8877,-1.8877,-1.88,-1.8794,-1.8789,0,0,0,0,0,0,-1.7722,-1.787,-1.7907,-1.7984,-1.8069,-1.8199,-1.823,-1.8279,-1.8362,-1.8366,-1.847,-1.8498,-1.8575,-1.8639,-1.8623,-1.8745,-1.8769,-1.8775,-1.8701,-1.8696,-1.8692,-1.8675,-1.869,0,0,0,0,0,-1.7709,-1.7777,-1.7904,-1.796,-1.8001,-1.8108,-1.8155,-1.8213,-1.8306,-1.8342,-1.843,-1.8519,-1.86,-1.8652,-1.8734,-1.8807,-1.8838,-1.8833,-1.8828,-1.8824,-1.8828,-1.8873,-1.8873,-1.888,-1.888,-1.888,0,0,-1.7685,-1.7775,-1.7812,-1.7944,-1.8016,-1.8086,-1.8137,-1.8209,-1.8263,-1.8354,-1.8441,-1.8508,-1.8614,-1.8694,-1.8734,-1.875,-1.8833,-1.8825,-1.882,-1.8827,-1.8874,-1.8873,-1.8872,-1.888,-1.888,-1.888,0,0,-1.7677,-1.775,-1.7806,-1.7877,-1.7986,-1.8057,-1.807,-1.8193,-1.8241,-1.8329,-1.8399,-1.8466,-1.8603,-1.8677,-1.8732,-1.8752,-1.8802,-1.8776,-1.8753,-1.8796,-1.8796,-1.8796,-1.8804,-1.8806,-1.878,-1.878,-1.8779,0,-1.7633,-1.774,-1.7828,-1.7896,-1.7953,-1.8038,-1.8095,-1.8161,-1.8291,-1.8329,-1.8344,-1.8519,-1.8597,-1.8696,-1.8701,-1.8743,-1.8763,-1.8762,-1.8788,-1.8789,-1.8791,-1.88,-1.8803,-1.8776,-1.8776,-1.8777,-1.8777,0,-1.7682,-1.7755,-1.7787,-1.7909,-1.7969,-1.8032,-1.8131,-1.8182,-1.8235,-1.8305,-1.8395,-1.8491,-1.8594,-1.8622,-1.8675,-1.873,-1.8736,-1.8768,-1.8794,-1.8784,-1.8795,-1.8799,-1.877,-1.8772,-1.8773,-1.8774,0,0,-1.7619,-1.7789,-1.78,-1.7857,-1.7983,-1.8042,-1.811,-1.8209,-1.8251,-1.8339,-1.8399,-1.8514,-1.8545,-1.8607,-1.8669,-1.8707,-1.8718,-1.8735,-1.874,-1.873,-1.8786,-1.8762,-1.8764,-1.8752,-1.8753,-1.8754,-1.8778,0,-1.7629,-1.7751,-1.7833,-1.7924,-1.7994,-1.8076,-1.8135,-1.822,-1.8287,-1.8357,-1.8433,-1.8513,-1.8547,-1.8586,-1.8626,-1.8708,-1.8731,-1.8708,-1.8811,-1.8814,-1.8782,-1.877,-1.8744,-1.8761,-1.8782,-1.8783,-1.8784,0,-1.7657,-1.774,-1.7837,-1.7957,-1.799,-1.8041,-1.814,-1.8205,-1.8304,-1.8351,-1.842,-1.8484,-1.856,-1.8579,-1.8687,-1.8669,-1.8717,-1.8763,-1.8766,-1.878,-1.8798,-1.8783,-1.8769,-1.8771,-1.8791,-1.879,-1.879,0,-1.7602,-1.7739,-1.7815,-1.7862,-1.8003,-1.8037,-1.8098,-1.8197,-1.8252,-1.8339,-1.8376,-1.8471,-1.8523,-1.8596,-1.8685,-1.869,-1.8784,-1.881,-1.8827,-1.8824,-1.8843,-1.8841,-1.8836,-1.8872,-1.8872,-1.8872,-1.8872,0,-1.7604,-1.7661,-1.7793,-1.7839,-1.7906,-1.8001,-1.8065,-1.8133,-1.822,-1.8283,-1.836,-1.8418,-1.8531,-1.8603,-1.8673,-1.8752,-1.8775,-1.8817,-1.8835,-1.881,-1.8805,-1.8843,-1.8844,-1.8873,-1.8872,-1.8872,-1.8872,0,-1.7554,-1.7645,-1.7733,-1.786,-1.7893,-1.7937,-1.8046,-1.8096,-1.8168,-1.8247,-1.8271,-1.8384,-1.8473,-1.8568,-1.869,-1.8737,-1.8814,-1.8839,-1.878,-1.879,-1.8802,-1.8799,-1.8822,-1.8831,-1.8859,-1.8858,-1.8858,0,-1.755,-1.7596,-1.7727,-1.7774,-1.7832,-1.7907,-1.7964,-1.806,-1.8116,-1.8232,-1.8268,-1.8363,-1.8444,-1.8583,-1.8678,-1.8772,-1.88,-1.8802,-1.8815,-1.8789,-1.8802,-1.8798,-1.8804,-1.8797,-1.8796,-1.8796,-1.8795,0,-1.7534,-1.7576,-1.7654,-1.7747,-1.7812,-1.7891,-1.7973,-1.8007,-1.812,-1.8179,-1.8271,-1.8333,-1.8458,-1.8552,-1.8657,-1.8723,-1.8778,-1.879,-1.8799,-1.8775,-1.8739,-1.876,-1.8769,-1.8789,-1.879,-1.879,-1.8791,-1.8791,-1.7507,-1.7552,-1.7651,-1.7736,-1.7807,-1.7882,-1.7935,-1.8013,-1.8091,-1.8198,-1.8251,-1.8342,-1.8443,-1.859,-1.8654,-1.8728,-1.8745,-1.8758,-1.8761,-1.8763,-1.8757,-1.8726,-1.8748,-1.8748,-1.8749,-1.8749,-1.8749,0,-1.7495,-1.7563,-1.764,-1.7752,-1.7818,-1.7863,-1.7957,-1.801,-1.8089,-1.8177,-1.8255,-1.8361,-1.8453,-1.8555,-1.8653,-1.8694,-1.8722,-1.8716,-1.8715,-1.8729,-1.8736,-1.8719,-1.8692,-1.8692,-1.8692,-1.8692,-1.8692,-1.8692,-1.7497,-1.7575,-1.7629,-1.7744,-1.7813,-1.7902,-1.7952,-1.8022,-1.8093,-1.8207,-1.8283,-1.8348,-1.8443,-1.8549,-1.8636,-1.8664,-1.8697,-1.8684,-1.8719,-1.8724,-1.8729,-1.8733,-1.8717,-1.869,-1.869,-1.8707,-1.8707,-1.8707]},{"header":{"parameterUnit":"m.s-1","parameterCategory":1,"la1":30.2991,"la2":30.254,"lo1":-89.0895,"lo2":-89.0444,"dy":0.0017,"dx":0.0017,"nx":28,"ny":28,"refTime":"2023-09-18T09:00:00:Z","depth":0,"parameterNumber":3,"parameterNumberName":"V-component_of_WINDS"},"data":[0,0,0,0,0,0,0,0,0,0,0,0,0,0,0,0,0,0,0,0,0,0,0,0,0,0,0,0,0,0,0,0,0,0,0,0,0,0,0,0,0,0,0,0,0,0,0,0,0,0,0,0,0,0,0,0,0,0,1.0206,1.0203,0,0.9931,0.9928,0.9924,0.9734,0.9732,0.9731,0.973,0.9441,0.9435,0.9429,0,0,0,0,0,0,0,0,0,0,0,0,0,1.056,1.0555,1.0206,1.0203,1.0199,0.9931,0.9927,0.9924,0.9734,0.9732,0.9731,0.9729,0.9443,0.9436,0.9428,0,0,0,0,0,0,0,0,0,0,0,0,0,1.0358,1.0553,1.0207,1.0073,1.0058,0.9932,0.9927,0.9923,0.9734,0.9732,0.973,0.9728,0.9446,0.9436,0.9427,0.9411,0,0,0.9398,0.9394,0,0,0,0,0,0,0,0,1.037,1.0345,1.0096,1.0082,1.0065,0.9865,0.9946,0.9751,0.9735,0.9857,0.973,0.9727,0.9583,0.9562,0.9515,0.9397,0.9385,0.9397,0.9391,0.9387,0.9384,0,0,0,0,0,0,0,1.0384,1.0356,1.0097,1.0092,1.0073,1.0024,0.9992,0.9908,0.9735,0.9846,0.9832,0.9802,0.9574,0.9525,0.9507,0.9381,0.9397,0.9389,0.9383,0.9379,0.9233,0.9235,0,0,0,0,0,0,1.042,1.0369,1.0106,1.0089,1.0215,1.0019,0.9984,0.9931,0.9736,0.9704,0.9804,0.9794,0.9542,0.9518,0.9496,0.9462,0.9387,0.9378,0.9373,0.9231,0.9234,0.9236,0,0,0,0,0,0,1.0428,1.0398,1.0117,1.0225,1.0185,1.0015,0.9957,0.9927,0.9877,0.9704,0.9671,0.9786,0.9539,0.9509,0.9433,0.945,0.9374,0.9365,0.9229,0.9232,0.9235,0.9397,0,0,0,0,0,0,1.0439,1.0403,1.0396,1.0226,1.018,1.0061,0.9958,0.9923,0.9862,0.9846,0.9678,0.9648,0.9536,0.9449,0.9424,0.9435,0.9358,0.9227,0.9231,0.9234,0.939,0.9405,0.9419,0,0,0,0,0,1.0453,1.0452,1.0397,1.0366,1.0169,1.0063,1.0036,0.9908,0.9864,0.9855,0.9744,0.9654,0.9453,0.9443,0.9413,0.9422,0.9225,0.923,0.9234,0.9383,0.9402,0.9418,0,0,0,0,0,0,1.0626,1.0427,1.0364,1.0309,1.0205,1.0031,1.0016,0.9933,0.9837,0.9826,0.967,0.9633,0.9573,0.9489,0.9482,0.9395,0.9328,0.9326,0.9452,0.9468,0.9483,0.9503,0.935,0,0,0,0,0,1.0659,1.0591,1.042,1.0388,1.0339,1.0187,1.0136,1.0047,0.9931,0.9885,0.9768,0.9658,0.9569,0.9514,0.9423,0.9377,0.9336,0.9369,0.9383,0.9396,0.9396,0.9363,0.9375,0.9249,0.9249,0.9249,0,0,1.0724,1.0607,1.0573,1.042,1.0328,1.0259,1.0151,1.0083,1.0029,0.9874,0.9795,0.9706,0.9572,0.9511,0.9478,0.9439,0.9422,0.9401,0.9413,0.9405,0.9369,0.9381,0.9392,0.9252,0.9252,0.9251,0,0,1.0807,1.0713,1.0675,1.0586,1.045,1.0349,1.0341,1.0179,1.0114,1.0033,0.9915,0.9848,0.97,0.9609,0.9543,0.9593,0.9505,0.9567,0.9643,0.9613,0.9623,0.9631,0.9647,0.9654,0.9568,0.9569,0.9569,0,1.0905,1.0799,1.0666,1.0605,1.0539,1.0398,1.0357,1.0276,1.0117,1.0074,1.0034,0.9844,0.9744,0.9659,0.9671,0.9623,0.9606,0.9585,0.9633,0.9639,0.9644,0.9658,0.9665,0.9577,0.9576,0.9575,0.9574,0,1.0924,1.0853,1.0838,1.069,1.0623,1.0573,1.0429,1.0377,1.0294,1.0197,1.0115,0.9991,0.9872,0.9845,0.9762,0.9747,0.9727,0.9663,0.9591,0.9667,0.9677,0.9681,0.9589,0.9586,0.9583,0.9581,0,0,1.1108,1.0888,1.0885,1.0815,1.0655,1.0595,1.0538,1.0423,1.0381,1.0276,1.0221,1.01,1.0038,0.9964,0.987,0.9844,0.9889,0.9781,0.9775,0.9804,0.9863,0.9912,0.9921,0.9831,0.9831,0.9832,0.9874,0,1.1166,1.1057,1.0936,1.0868,1.0799,1.0664,1.0612,1.0508,1.0415,1.0341,1.0237,1.0153,1.0079,1.0033,1.0002,0.9891,0.9898,0.9886,0.9777,0.9774,0.9814,0.9926,0.9977,1.0023,0.9877,0.9877,0.9878,0,1.1218,1.1122,1.1049,1.0894,1.086,1.0817,1.0702,1.0634,1.0511,1.0445,1.0363,1.0263,1.0193,1.0132,1.0032,1.0026,0.9974,0.9913,0.9911,0.9895,0.983,0.9911,1.0034,1.0041,0.9883,0.9882,0.9882,0,1.1359,1.121,1.1146,1.1091,1.091,1.0882,1.0805,1.068,1.0619,1.0518,1.0476,1.0368,1.0308,1.0225,1.0097,1.0065,1.001,0.9939,0.9952,0.9955,0.9945,0.9947,1.0061,0.9915,0.9915,0.9915,0.9915,0,1.1435,1.1395,1.1207,1.1168,1.1118,1.0978,1.0931,1.0841,1.0732,1.0671,1.0547,1.0492,1.0327,1.0252,1.0151,1.0083,1.0057,1.0,0.9974,1.001,1.0018,0.9973,0.9966,0.9916,0.9916,0.9916,0.9915,0,1.1582,1.1455,1.1376,1.1212,1.1169,1.114,1.0997,1.0952,1.0853,1.0778,1.0752,1.0595,1.05,1.0366,1.0229,1.0161,1.0106,1.0065,1.0149,1.0133,1.0153,1.0152,1.024,1.0244,1.0099,1.0101,1.0102,0,1.1638,1.1604,1.1436,1.1388,1.1315,1.1239,1.1176,1.1036,1.0976,1.0833,1.0806,1.0702,1.0611,1.0465,1.0338,1.0232,1.0186,1.0224,1.0169,1.0207,1.0184,1.0188,1.0183,1.0237,1.024,1.0241,1.0243,0,1.1751,1.169,1.1606,1.15,1.143,1.1339,1.1242,1.1209,1.1047,1.0985,1.0888,1.0818,1.0679,1.0577,1.0454,1.0371,1.028,1.0262,1.0258,1.0295,1.0345,1.0317,1.0183,1.026,1.0258,1.0257,1.0256,1.0255,1.1852,1.1816,1.1692,1.1602,1.1515,1.1428,1.1378,1.1274,1.1191,1.1068,1.099,1.0897,1.0772,1.0599,1.0521,1.0444,1.0406,1.0402,1.0401,1.0402,1.0414,1.0359,1.0421,1.042,1.0419,1.0419,1.0418,0,1.1958,1.1872,1.1791,1.166,1.1589,1.1512,1.1401,1.1346,1.1266,1.1159,1.1073,1.096,1.086,1.0726,1.0616,1.058,1.0535,1.0556,1.0556,1.0538,1.0454,1.0468,1.0594,1.0594,1.0594,1.0594,1.0594,1.0594,1.2004,1.1938,1.1862,1.1751,1.1663,1.1573,1.1515,1.1433,1.1347,1.1228,1.1146,1.106,1.0941,1.0821,1.0725,1.0688,1.0652,1.0686,1.0636,1.056,1.0544,1.0529,1.054,1.068,1.068,1.0725,1.0726,1.0726]}]]